GPS BIIRM-3 (PRN 12)

Last updated on Tue Jul 01 2025 00:03:13 GMT+0000 (Coordinated Universal Time)

1 29601U 06052A 25180.42511914 .00000011 00000+0 00000+0 0 9994 2 29601 55.0117 227.9943 0085063 86.6702 274.3755 2.00564105136338
UTC large
Height (km)
Speed (km/s)
/
Latitude / Longitude
Inclination (degrees)
Orbital Period (minutes)
Azimuth
Elevation
Range (km)
Doppler Factor

Next 0 passes for location: London (51.5072 / 0.1276)

Sorry there are no passes over London.